Flag for Yemen Weather past 2 weeks in Ta'izz, Yemen

Now
57 °F

Passing clouds.


Feels Like: 56 °F
Forecast: 55 / 79 °F
Wind: 6 mph from Southeast

Location: Taiz

Current Time: Jan 26, 2015 at 9:59:47 PM

Latest Report: Jan 26, 2015 at 9:00 PM


Visibility: 5 mi

Pressure: 30.24 "Hg

Humidity: 94%

Dew point: 55 °F

Location of Ta'izzLocation

Historic Weather in Ta'izz — Graph

°F

Ta'izz temperature yesterday

Maximum temperature yesterday: 72 °F (at 3:00 PM)
Minimum temperature yesterday: 52 °F (at 2:00 AM)
Average temperature yesterday: 61 °F

Past Weeks' High & Low Weather Summary

 TemperatureHumidityPressure
High77 °F (Jan 15, 2:00 PM)100% (Jan 13, 6:00 AM)30.30 "Hg (Jan 13, 6:00 AM)
Low50 °F (Jan 24, 6:00 AM)29% (Jan 14, 4:00 PM)30.04 "Hg (Jan 19, 2:00 PM)
Average64 °F73%30.17 "Hg
* Reported Jan 12 9:00 AM — Jan 26 9:00 PM, Ta'izz, Weather by CustomWeather, © 2014

Note: Actual official high and low records may vary slightly from our data, if they occured in-between our weather recording intervals... More about our weather records

Advertising

Ta'izz weather history for previous 24 hours

 ConditionsComfort  
Time TempWeatherWind HumidityBarometerVisibility
9:00 PM
Jan 26
57 °FPassing clouds.6 mph94%30.24 "Hg5 mi
8:00 PM63 °FClear.10 mph68%30.21 "Hg10 mi
7:00 PM63 °FClear.10 mph68%30.21 "Hg10 mi
6:00 PM66 °FClear.9 mph56%30.18 "Hg10 mi
5:00 PM70 °FSunny.10 mph38%30.15 "Hg10 mi
4:00 PM73 °FSunny.9 mph33%30.15 "Hg10 mi
3:00 PM72 °FSunny.21 mph31%30.15 "Hg10 mi
2:00 PM73 °FSunny.13 mph38%N/A10 mi
1:00 PM72 °FScattered clouds.12 mph41%30.18 "HgN/A
12:00 PM68 °FPassing clouds.13 mph49%30.21 "HgN/A
11:00 AMN/APartly sunny.12 mphN/AN/AN/A
10:00 AM61 °FPartly sunny.10 mph59%30.27 "HgN/A
9:00 AM59 °FPassing clouds.6 mph72%30.27 "HgN/A
8:00 AM55 °FScattered clouds.6 mph100%30.24 "Hg4 mi
7:00 AM54 °FFog.5 mph100%30.24 "Hg3 mi
6:00 AM54 °FPassing clouds.6 mph94%30.21 "Hg4 mi
2:00 AM55 °FPassing clouds.6 mph94%30.18 "Hg5 mi
1:00 AM55 °FPassing clouds.5 mph88%30.21 "Hg5 mi
12:00 AM57 °FPassing clouds.5 mph88%30.21 "Hg6 mi
11:00 PM
Jan 25
57 °FPassing clouds.6 mph94%30.21 "Hg4 mi
10:00 PM57 °FPassing clouds.9 mph100%30.24 "Hg5 mi
9:00 PM57 °FClear.8 mph88%30.21 "Hg10 mi
Weather by CustomWeather, © 2014

See weather overviewHow to use our weather pages